Regional Weather Roundup
Issued by NWS

Home | Current Version | Previous Version | Text Only | Print | Product List | Glossary Off
Versions: 1 2 3 4 5 6 7 8 9 10 11 12 13 14 15 16 17 18 19 20 21 22 23 24 25 26 27 28 29 30 31 32 33 34 35 36 37 38 39 40 41 42 43 44 45 46 47 48 49 50

000
ASUS43 KOAX 240902
RWRNE

WEATHER ROUNDUP FOR NEBRASKA
NATIONAL WEATHER SERVICE OMAHA NE
400 AM CDT FRI MAR 24 2017

NOTES: SATELLITE DATA IS BEING USED TO AUGMENT CLOUD COVER ABOVE
       12000 FEET.
       "FAIR" INDICATES FEW OR NO CLOUDS BELOW 12,000 FEET WITH NO
       SIGNIFICANT WEATHER AND/OR OBSTRUCTIONS TO VISIBILITY.

  * THESE STATIONS DO NOT REPORT WEATHER SUCH AS RAIN...SNOW OR FOG.

NEZ001>004-019>022-054>056-241000-
NEBRASKA PANHANDLE

CITY           SKY/WX    TMP DP  RH WIND       PRES   REMARKS
SCOTTSBLUFF    CLOUDY    42  38  85 N15       29.95R
ALLIANCE       CLOUDY    40  37  89 N17G24    29.91R WCI  31
CHADRON        CLOUDY    41  37  86 NE8       29.98R
KIMBALL        LGT RAIN  38  38 100 N20G28    29.89R WCI  28
SIDNEY         LGT RAIN  41  39  93 N21G28    29.85R
$$

NEZ057>060-069>072-079>082-241000-
SOUTHWEST NEBRASKA

CITY           SKY/WX    TMP DP  RH WIND       PRES   REMARKS
NORTH PLATTE   LGT RAIN  49  45  86 NE23G29   29.78F FOG
IMPERIAL       LGT RAIN  48  46  93 N26G35    29.71F FOG
LEXINGTON      DRIZZLE   53  51  92 NE10      29.75S
OGALLALA       LGT RAIN  46  44  92 NE16      29.80S
$$

NEZ005>010-023>029-035>040-094-241000-
NORTH CENTRAL NEBRASKA

CITY           SKY/WX    TMP DP  RH WIND       PRES   REMARKS
VALENTINE      CLOUDY    41  36  82 N13       29.89R
AINSWORTH      DRIZZLE   43  42  98 N15       29.88R
BROKEN BOW     LGT RAIN  50  48  93 N16G24    29.78R
O`NEILL        CLOUDY    44  43  95 N14       29.84R
ORD            LGT RAIN  50  47  89 N13       29.79R
THEDFORD       LGT RAIN  45  43  95 N10G17    29.85R
$$

NEZ041-046>049-061>064-073>077-083>087-241000-
SOUTH CENTRAL NEBRASKA

CITY           SKY/WX    TMP DP  RH WIND       PRES   REMARKS
GRAND ISLAND   LGT RAIN  54  54 100 NE12      29.75F
AURORA         DRIZZLE   55  53  95 NE14      29.73F
HASTINGS       LGT RAIN  55  52  89 NE9       29.74F
HEBRON         CLOUDY    64  52  66 NW10      29.71S
HOLDREGE       MOCLDY    53  51  94 NE20      29.69F
KEARNEY *      CLOUDY    54  50  87 NE18      29.72F
YORK           CLOUDY    55  55 100 NE12      29.74F
$$

NEZ011>018-030>034-042>045-241000-
NORTHEAST NEBRASKA

CITY           SKY/WX    TMP DP  RH WIND       PRES   REMARKS
NORFOLK        LGT RAIN  51  49  92 N10       29.75R
ALBION         RAIN      54  51  90 NW9       29.78R
BLAIR          LGT RAIN  55  54  94 N15       29.74F
FREMONT        LGT RAIN  55  54  97 NE6       29.75R
TEKAMAH        LGT RAIN  50  48  93 N8        29.75R
WAYNE          CLOUDY    49  49  98 NW8       29.78R FOG
$$

NEZ050>053-065>068-078-088>093-241000-
SOUTHEAST NEBRASKA

CITY           SKY/WX    TMP DP  RH WIND       PRES   REMARKS
LINCOLN        RAIN      61  54  77 VRB6      29.75R
OMAHA EPPLEY   LGT RAIN  56  51  84 N8        29.75R
BEATRICE       DRIZZLE   67  51  57 S12       29.71S
FALLS CITY     CLOUDY    66  50  56 S13       29.72F
NEBRASKA CITY  CLOUDY    66  43  43 S12       29.72S
PLATTSMOUTH    CLOUDY    66  45  47 S8        29.73R
$$

NEZ044-045-051>053-067-241000-
OMAHA AREA

CITY           SKY/WX    TMP DP  RH WIND       PRES   REMARKS
OMAHA EPPLEY   LGT RAIN  56  51  84 N8        29.75R
BLAIR          LGT RAIN  55  54  94 N15       29.74F
FREMONT        LGT RAIN  55  54  97 NE6       29.75R
MILLARD        LGT RAIN  61  58  88 CALM      29.74R
OFFUTT AFB     LGT RAIN  61  54  76 N13       29.73R
PLATTSMOUTH    CLOUDY    66  45  47 S8        29.73R
WAHOO          LGT RAIN  56  54  94 N7        29.74S
$$



USA.gov is the U.S. government's official web portal to all federal, state and local government web resources and services.